TimeEDT,TemperatureF,Dew PointF,Humidity,Sea Level PressureIn,VisibilityMPH,Wind Direction,Wind SpeedMPH,Gust SpeedMPH,PrecipitationIn,Events,Conditions,WindDirDegrees,DateUTC
12:27 AM,53.6,53.6,100,30.11,6.0,Calm,Calm,-,N/A,,Overcast,0,2013-10-07 04:27:00
12:52 AM,54.0,53.1,97,30.12,9.0,Calm,Calm,-,N/A,,Overcast,0,2013-10-07 04:52:00
1:52 AM,54.0,54.0,100,30.10,10.0,Calm,Calm,-,0.00,,Overcast,0,2013-10-07 05:52:00
2:52 AM,55.0,54.0,96,30.08,10.0,Calm,Calm,-,N/A,,Overcast,0,2013-10-07 06:52:00
3:29 AM,55.4,53.6,94,30.06,8.0,Calm,Calm,-,N/A,,Overcast,0,2013-10-07 07:29:00
3:52 AM,55.0,54.0,96,30.06,6.0,Calm,Calm,-,0.01,,Overcast,0,2013-10-07 07:52:00
4:06 AM,55.4,53.6,94,30.04,2.5,Calm,Calm,-,N/A,,Overcast,0,2013-10-07 08:06:00
4:31 AM,55.4,53.6,94,30.04,1.8,Calm,Calm,-,N/A,,Overcast,0,2013-10-07 08:31:00
4:52 AM,55.0,54.0,96,30.04,1.8,Calm,Calm,-,N/A,,Overcast,0,2013-10-07 08:52:00
5:10 AM,55.4,55.4,100,30.03,2.5,Calm,Calm,-,N/A,,Overcast,0,2013-10-07 09:10:00
5:19 AM,55.4,53.6,94,30.03,4.0,Calm,Calm,-,N/A,,Overcast,0,2013-10-07 09:19:00
5:52 AM,55.0,55.0,100,30.04,2.5,Calm,Calm,-,N/A,,Overcast,0,2013-10-07 09:52:00
6:07 AM,55.4,53.6,94,30.03,1.5,Calm,Calm,-,N/A,,Overcast,0,2013-10-07 10:07:00
6:14 AM,55.4,55.4,100,30.03,1.2,Calm,Calm,-,N/A,,Overcast,0,2013-10-07 10:14:00
6:25 AM,55.4,55.4,100,30.02,1.5,Calm,Calm,-,N/A,,Overcast,0,2013-10-07 10:25:00
6:52 AM,55.0,55.0,100,30.02,1.8,Calm,Calm,-,N/A,,Overcast,0,2013-10-07 10:52:00
7:15 AM,55.4,55.4,100,30.01,2.0,Calm,Calm,-,N/A,,Overcast,0,2013-10-07 11:15:00
7:27 AM,55.4,55.4,100,30.01,4.0,Calm,Calm,-,N/A,,Overcast,0,2013-10-07 11:27:00
7:52 AM,55.9,55.0,97,30.02,7.0,Calm,Calm,-,N/A,,Overcast,0,2013-10-07 11:52:00
8:39 AM,57.2,57.2,100,29.99,2.0,Calm,Calm,-,N/A,,Overcast,0,2013-10-07 12:39:00
8:50 AM,57.2,57.2,100,29.99,6.0,Calm,Calm,-,N/A,,Overcast,0,2013-10-07 12:50:00
8:52 AM,57.9,57.0,97,29.99,7.0,Calm,Calm,-,N/A,,Overcast,0,2013-10-07 12:52:00
9:52 AM,61.0,60.1,97,29.96,7.0,Calm,Calm,-,N/A,,Overcast,0,2013-10-07 13:52:00
10:18 AM,64.4,62.6,94,29.95,7.0,South,4.6,-,N/A,,Overcast,180,2013-10-07 14:18:00
10:52 AM,66.9,64.9,93,29.94,10.0,South,6.9,-,N/A,,Overcast,170,2013-10-07 14:52:00
11:12 AM,68.0,64.4,88,29.92,10.0,South,8.1,-,N/A,,Overcast,180,2013-10-07 15:12:00
11:52 AM,71.1,66.0,84,29.90,10.0,SSE,9.2,-,N/A,,Overcast,160,2013-10-07 15:52:00
12:52 PM,73.9,64.9,73,29.86,10.0,South,13.8,21.9,N/A,,Mostly Cloudy,180,2013-10-07 16:52:00
1:25 PM,73.4,64.4,73,29.82,10.0,South,13.8,24.2,N/A,,Overcast,170,2013-10-07 17:25:00
1:33 PM,73.4,64.4,73,29.82,10.0,South,12.7,27.6,N/A,,Overcast,180,2013-10-07 17:33:00
1:52 PM,73.9,64.0,71,29.81,10.0,South,11.5,27.6,N/A,,Mostly Cloudy,170,2013-10-07 17:52:00
2:52 PM,73.9,64.9,73,29.78,10.0,South,19.6,29.9,0.00,,Overcast,170,2013-10-07 18:52:00
3:52 PM,73.9,64.0,71,29.77,10.0,South,20.7,38.0,N/A,,Mostly Cloudy,170,2013-10-07 19:52:00
4:52 PM,72.0,64.9,78,29.77,7.0,South,17.3,26.5,0.02,Rain,Light Rain,180,2013-10-07 20:52:00
5:06 PM,69.8,66.2,88,29.77,1.8,South,15.0,29.9,0.09,Rain,Rain,180,2013-10-07 21:06:00
5:13 PM,69.8,66.2,88,29.78,2.0,SSW,18.4,27.6,0.14,Rain,Rain,200,2013-10-07 21:13:00
5:28 PM,69.8,66.2,88,29.78,10.0,South,15.0,23.0,0.16,Rain,Light Rain,180,2013-10-07 21:28:00
5:45 PM,66.2,62.6,88,29.80,1.8,SW,25.3,33.4,0.35,Rain,Heavy Rain,220,2013-10-07 21:45:00
5:48 PM,64.4,62.6,94,29.80,1.0,SW,20.7,33.4,0.56,Rain,Heavy Rain,230,2013-10-07 21:48:00
5:50 PM,64.4,62.6,94,29.79,0.8,SW,18.4,33.4,0.67,Rain,Heavy Rain,230,2013-10-07 21:50:00
5:52 PM,64.9,62.1,90,29.80,0.8,WSW,16.1,33.4,0.74,Rain,Heavy Rain,240,2013-10-07 21:52:00
6:00 PM,66.2,62.6,88,29.79,1.2,SW,15.0,-,0.17,Rain,Heavy Rain,220,2013-10-07 22:00:00
6:04 PM,66.2,62.6,88,29.79,2.0,SW,11.5,21.9,0.18,Rain,Rain,230,2013-10-07 22:04:00
6:12 PM,66.2,62.6,88,29.79,3.0,SW,9.2,17.3,0.23,Rain,Heavy Rain,220,2013-10-07 22:12:00
6:21 PM,66.2,64.4,94,29.80,3.0,WSW,5.8,-,0.26,Rain,Rain,240,2013-10-07 22:21:00
6:52 PM,66.9,64.0,90,29.81,10.0,South,8.1,-,0.30,Rain,Light Rain,190,2013-10-07 22:52:00
7:17 PM,66.2,64.4,94,29.81,4.0,Variable,3.5,-,0.02,Rain,Rain,0,2013-10-07 23:17:00
7:35 PM,66.2,62.6,88,29.83,10.0,SW,12.7,-,0.02,,Overcast,220,2013-10-07 23:35:00
7:52 PM,64.0,61.0,90,29.86,7.0,WNW,17.3,24.2,0.03,Rain,Light Rain,300,2013-10-07 23:52:00
8:33 PM,59.0,53.6,82,29.88,10.0,WNW,8.1,-,0.00,,Overcast,290,2013-10-08 00:33:00
8:52 PM,57.9,53.1,84,29.88,10.0,Variable,6.9,-,0.00,,Overcast,0,2013-10-08 00:52:00
9:52 PM,57.9,52.0,81,29.91,10.0,Calm,Calm,-,0.00,,Overcast,0,2013-10-08 01:52:00
10:52 PM,55.9,54.0,93,29.93,10.0,South,4.6,-,N/A,,Overcast,190,2013-10-08 02:52:00
11:52 PM,54.0,53.1,97,29.93,10.0,Calm,Calm,-,N/A,,Clear,0,2013-10-08 03:52:00